Homer, AK

8:52 PM AKDT on July 24, 2017 (GMT -0800)
Homer

Weather History for PAHO - April, 2014

Change the Weather History Date:

Wednesday, April 23, 2014

  Actual Average Record
Temperature  
Mean Temperature 40 °F -  
Max Temperature 50 °F 46 °F 56 °F (1956)
Min Temperature 33 °F 30 °F 14 °F (1948)
Degree Days  
Heating Degree Days 24    
Moisture  
Dew Point 29 °F    
Average Humidity 61    
Maximum Humidity 81    
Minimum Humidity 43    
Precipitation  
Precipitation 0.00 in - - ()
Sea Level Pressure  
Sea Level Pressure 29.73 in    
Wind  
Wind Speed 2 mph (SSW)    
Max Wind Speed 8 mph    
Max Gust Speed -    
Visibility 10 miles    
Events Rain    
Averages and records for this station are not official NWS values.
T = Trace of Precipitation, MM = Missing Value Source: NWS Daily Summary

Daily Weather History Graph

Daily Weather History Graph

Search for Another Location

Airport or City:

Trip Planner

Search our weather history database for the weather conditions in past years. The results will help you decide how hot, cold, wet, or windy it might be!

Date:

Astronomy

Apr. 23, 2014 Rise Set
Actual Time 6:26 AM AKDT 9:43 PM AKDT
Civil Twilight 5:38 AM AKDT 10:32 PM AKDT
Nautical Twilight 4:30 AM AKDT 11:41 PM AKDT
Astronomical Twilight 2:36 AM AKDT 1:31 AM AKDT
Moon 4:33 AM AKDT (4/23) 2:40 PM AKDT (4/23)
Length of Visible Light 16h 53m
Length of Day
15h 16m
Waning Crescent, 33% of the Moon is Illuminated
Apr 23
Waning Crescent
Apr 28
New
May 6
First Quarter
May 14
Full
May 21
Last Quarter

Hourly Weather History & Observations

Time (AKDT) Temp. Windchill Dew Point Humidity Pressure Visibility Wind Dir Wind Speed Gust Speed Precip Events Conditions
12:53 AM 39.9 °F - 30.9 °F 70% 29.76 in 10.0 mi Calm Calm - N/A   Overcast
1:53 AM 42.1 °F - 33.1 °F 70% 29.76 in 10.0 mi Calm Calm - N/A   Overcast
2:53 AM 41.0 °F - 32.0 °F 70% 29.75 in 10.0 mi Calm Calm - N/A   Overcast
3:53 AM 36.0 °F - 30.0 °F 79% 29.74 in 10.0 mi Calm Calm - N/A   Partly Cloudy
4:53 AM 34.0 °F - 28.0 °F 79% 29.73 in 10.0 mi Calm Calm - N/A   Scattered Clouds
5:02 AM 33.8 °F - 28.4 °F 81% 29.73 in 10.0 mi Calm Calm - N/A   Mostly Cloudy
5:53 AM 36.0 °F - 28.9 °F 76% 29.73 in 10.0 mi Calm Calm - N/A   Overcast
6:53 AM 35.1 °F - 28.9 °F 78% 29.73 in 10.0 mi Calm Calm - N/A   Overcast
7:53 AM 37.0 °F - 30.9 °F 79% 29.73 in 10.0 mi Calm Calm - N/A   Mostly Cloudy
8:53 AM 42.1 °F 40.2 °F 34.0 °F 73% 29.73 in 10.0 mi East 3.5 mph - N/A   Clear
9:53 AM 43.0 °F 40.3 °F 33.1 °F 68% 29.73 in 10.0 mi East 4.6 mph - N/A   Clear
10:53 AM 45.0 °F 43.5 °F 33.1 °F 63% 29.73 in 10.0 mi East 3.5 mph - N/A   Clear
11:53 AM 46.0 °F 44.8 °F 28.0 °F 50% 29.73 in 10.0 mi SSW 3.5 mph - N/A   Clear
12:53 PM 48.0 °F - 28.0 °F 46% 29.73 in 10.0 mi SW 4.6 mph - 0.00 in Rain Light Rain
1:53 PM 48.9 °F - 27.0 °F 43% 29.73 in 10.0 mi SSW 5.8 mph - 0.00 in   Scattered Clouds
2:53 PM 48.9 °F - 28.0 °F 44% 29.73 in 10.0 mi SW 6.9 mph - N/A   Scattered Clouds
3:53 PM 48.9 °F - 28.0 °F 44% 29.72 in 10.0 mi SW 8.1 mph - N/A   Scattered Clouds
4:53 PM 48.9 °F - 28.0 °F 44% 29.72 in 10.0 mi SW 8.1 mph - N/A   Scattered Clouds
5:53 PM 48.9 °F - 27.0 °F 43% 29.72 in 10.0 mi WSW 6.9 mph - N/A   Partly Cloudy
6:53 PM 46.9 °F - 27.0 °F 46% 29.72 in 10.0 mi Calm Calm - N/A   Partly Cloudy
7:53 PM 46.0 °F 44.8 °F 27.0 °F 47% 29.72 in 10.0 mi SW 3.5 mph - N/A   Partly Cloudy
8:53 PM 45.0 °F - 27.0 °F 49% 29.72 in 10.0 mi Calm Calm - N/A   Partly Cloudy
9:53 PM 42.1 °F - 27.0 °F 55% 29.72 in 10.0 mi Calm Calm - N/A   Clear
10:53 PM 41.0 °F - 30.0 °F 65% 29.72 in 10.0 mi Calm Calm - N/A   Partly Cloudy
11:53 PM 39.9 °F - 28.9 °F 65% 29.72 in 10.0 mi Calm Calm - N/A   Clear